Hourly Data Report for March 21, 2005

TORONTO CITY
ONTARIO

43°40'00.000" N
79°24'00.000" W
112.50 m
6158355
71508
XTO

Download Data

Hourly Data (March 2005)
Hourly Data Report for March 21, 2005
TIME
LST
Temp Definition
°C
Dew Point Definition
°C
Rel Hum Definition
%
Precip. Amount Definition
mm

Wind Dir Definition
10's deg

Wind Spd Definition
km/h
Visibility Definition
km
Stn Press Definition
kPa
Hmdx Definition


Wind Chill Definition


Weather Definition


00:00 1.0 0.4 96   LegendMM LegendMM   100.31     LegendNANA
01:00 0.9 0.3 96   LegendMM LegendMM   100.32     LegendNANA
02:00 0.8 0.3 96   LegendMM LegendMM   100.30     LegendNANA
03:00 0.8 0.3 96   LegendMM LegendMM   100.28     LegendNANA
04:00 0.8 0.3 96   LegendMM LegendMM   100.29     LegendNANA
05:00 0.9 0.2 95   LegendMM LegendMM   100.32     LegendNANA
06:00 0.7 -0.1 94   LegendMM LegendMM   100.36     LegendNANA
07:00 0.7 -0.1 94   LegendMM LegendMM   100.42     LegendNANA
08:00 1.2 0.1 92   LegendMM LegendMM   100.45     LegendNANA
09:00 2.3 0.3 87   LegendMM LegendMM   100.46     LegendNANA
10:00 4.0 -0.1 75   LegendMM LegendMM   100.47     LegendNANA
11:00 4.8 -0.3 70   LegendMM LegendMM   100.48     LegendNANA
12:00 4.9 -1.1 65   LegendMM LegendMM   100.46     LegendNANA
13:00 5.3 -0.6 66   LegendMM LegendMM   100.46     LegendNANA
14:00 5.7 -1.6 59   LegendMM LegendMM   100.42     LegendNANA
15:00 6.7 -2.8 51   LegendMM LegendMM   100.42     LegendNANA
16:00 6.3 -4.9 45   LegendMM LegendMM   100.44     LegendNANA
17:00 6.0 -4.8 46   LegendMM LegendMM   100.50     LegendNANA
18:00 5.3 -5.3 46   LegendMM LegendMM   100.59     LegendNANA
19:00 3.9 -4.9 53   LegendMM LegendMM   100.62     LegendNANA
20:00 2.7 -5.1 56   LegendMM LegendMM   100.69     LegendNANA
21:00 2.0 -4.8 61   LegendMM LegendMM   100.73     LegendNANA
22:00 1.4 -4.8 63   LegendMM LegendMM   100.75     LegendNANA
23:00 0.7 -4.8 67   LegendMM LegendMM   100.75     LegendNANA

Notes on Data Quality.

Legend

  • E = Estimated
  • M = Missing
  • NA = Not Available*
  • [empty] = Indicates an unobserved value
Date modified: